FW2977 Weather Reports


time (UTC)temp
C
wind
direction
speed
KPH
gust
KPH
rain 1hr
cm
rain 24hr
cm
rain mn
cm
humidity
%
barometer
mb
20260508064539 5 119 4.8 9.7 0.00 0.00 0.00 83 956.9
20260508063023 5 170 1.6 4.8 0.00 0.00 0.00 82 957.0
20260508061520 5 161 1.6 8.0 0.00 0.00 0.00 80 957.0
20260508060019 5 140 1.6 4.8 0.00 0.00 0.00 79 956.8
20260508054532 5 157 0.0 3.2 0.00 0.00 0.00 77 957.0
20260508053015 5 152 1.6 6.4 0.00 0.00 0.00 75 957.0
20260508051513 5 167 0.0 4.8 0.00 0.00 0.00 72 957.1
20260508050010 5 165 0.0 3.2 0.00 0.00 0.00 72 957.0
20260508044510 6 165 0.0 4.8 0.00 0.00 0.00 71 957.4
20260508043002 6 165 0.0 4.8 0.00 0.00 0.00 70 957.4
20260508041603 6 161 3.2 6.4 0.00 0.00 0.00 68 957.3
20260508040100 5 80 0.0 3.2 0.00 0.00 0.00 69 957.2
20260508034554 5 80 0.0 1.6 0.00 0.00 0.00 71 957.1
20260508033053 6 80 3.2 4.8 0.00 0.00 0.00 68 956.7
20260508031553 6 360 0.0 1.6 0.00 0.00 0.00 67 956.8
20260508030056 6 360 0.0 1.6 0.00 0.00 0.00 65 956.6
20260508024553 6 350 0.0 4.8 0.00 0.00 0.00 65 956.5
20260508023051 6 33 1.6 4.8 0.00 0.00 0.00 66 956.4
20260508021551 5 227 0.0 1.6 0.00 0.00 0.00 68 956.2
20260508020056 6 206 0.0 4.8 0.00 0.00 0.00 67 956.4
20260508014551 6 71 1.6 3.2 0.00 0.00 0.00 67 956.2
20260508013049 6 280 0.0 4.8 0.00 0.00 0.00 70 956.1
20260508011551 6 297 1.6 4.8 0.00 0.00 0.00 69 956.1
20260508010049 6 307 0.0 3.2 0.00 0.00 0.00 69 956.0
20260508004552 7 307 0.0 0.0 0.00 0.00 0.00 66 955.9
20260508003050 7 307 0.0 3.2 0.00 0.00 0.00 68 955.7
20260508001547 7 307 0.0 3.2 0.00 0.00 0.00 66 955.6
20260508000055 7 308 0.0 3.2 0.00 0.00 0.00 65 955.5
20260507234554 8 308 1.6 4.8 0.00 0.00 0.00 63 955.4
20260507233108 8 255 0.0 4.8 0.00 0.00 0.00 62 955.3
20260507231546 10 264 1.6 4.8 0.00 0.00 0.00 60 955.3
20260507230047 9 267 1.6 6.4 0.00 0.00 0.00 57 955.2
20260507224544 10 226 3.2 6.4 0.00 0.00 0.00 58 955.2
20260507223055 10 264 3.2 6.4 0.00 0.00 0.00 58 955.2
20260507221543 9 270 1.6 6.4 0.00 0.00 0.00 60 955.2
20260507220041 10 279 3.2 9.7 0.00 0.00 0.00 57 955.1
20260507214542 10 277 3.2 6.4 0.00 0.00 0.00 58 955.3
20260507213141 11 263 3.2 9.7 0.00 0.00 0.00 54 955.4
20260507211547 11 258 3.2 6.4 0.00 0.00 0.00 52 955.3
20260507210057 12 284 8.0 14.5 0.00 0.00 0.00 48 955.3
20260507204544 11 259 3.2 11.3 0.00 0.03 0.00 52 955.2
20260507203038 11 261 6.4 9.7 0.00 0.03 0.00 52 955.3
20260507201535 11 261 3.2 9.7 0.00 0.03 0.00 56 955.3
20260507200135 12 220 3.2 11.3 0.00 0.03 0.00 51 955.3
20260507194546 11 259 4.8 11.3 0.00 0.08 0.00 50 955.4
20260507193031 11 253 3.2 6.4 0.00 0.08 0.00 53 955.6
20260507191529 12 274 4.8 9.7 0.00 0.08 0.00 49 955.6
20260507190040 10 264 3.2 8.0 0.00 0.08 0.00 53 955.8
20260507184540 11 263 4.8 9.7 0.00 0.08 0.00 52 956.0
20260507183027 10 252 4.8 14.5 0.00 0.08 0.00 50 956.1
20260507181526 11 270 4.8 9.7 0.00 0.08 0.00 50 956.1
20260507180025 11 254 3.2 8.0 0.00 0.08 0.00 53 956.3
20260507174526 11 254 6.4 14.5 0.00 0.10 0.00 54 956.4
20260507173036 12 245 4.8 12.9 0.00 0.10 0.00 52 956.5
20260507171518 11 271 4.8 9.7 0.00 0.10 0.00 54 956.7
20260507170021 11 254 4.8 12.9 0.00 0.10 0.00 52 956.7
20260507164522 11 267 4.8 8.0 0.00 0.10 0.00 56 956.8
20260507163017 9 261 4.8 9.7 0.00 0.10 0.00 57 957.1
20260507161513 10 254 3.2 6.4 0.00 0.10 0.00 56 957.2
20260507160017 10 244 4.8 8.0 0.00 0.10 0.00 60 957.3
20260507154511 11 268 6.4 12.9 0.00 0.23 0.00 59 957.4
20260507153008 10 253 4.8 11.3 0.00 0.23 0.00 56 957.6
20260507151506 9 260 8.0 16.1 0.00 0.23 0.00 58 957.6
20260507150004 10 255 4.8 12.9 0.00 0.28 0.00 62 957.9
20260507144602 9 238 4.8 11.3 0.00 0.28 0.00 61 957.9
20260507143118 9 239 3.2 8.0 0.00 0.28 0.00 66 958.1
20260507141558 8 239 6.4 11.3 0.00 0.28 0.00 61 958.1
20260507140052 8 257 1.6 6.4 0.00 0.28 0.00 65 958.2
20260507134549 8 238 0.0 6.4 0.00 0.51 0.00 69 958.3
20260507133048 7 252 1.6 4.8 0.00 0.51 0.00 73 958.3
20260507131540 7 257 1.6 4.8 0.00 0.51 0.00 76 958.2
20260507130040 6 340 1.6 4.8 0.00 0.51 0.00 77 958.3
20260507124538 5 290 1.6 4.8 0.00 0.71 0.00 83 958.6
20260507123024 5 292 1.6 4.8 0.00 0.71 0.00 82 958.4
20260507121520 3 225 1.6 3.2 0.00 0.71 0.00 87 958.2
20260507120019 3 225 0.0 3.2 0.00 0.71 0.00 89 958.2
20260507114513 3 225 1.6 3.2 0.00 0.76 0.00 89 958.1
20260507113029 2 225 0.0 0.0 0.00 0.76 0.00 90 957.9
20260507111504 2 225 0.0 3.2 0.00 0.76 0.00 90 958.1
20260507104557 1 225 1.6 3.2 0.00 0.81 0.00 91 957.8
20260507103056 1 216 1.6 4.8 0.00 0.81 0.00 91 957.6
20260507101552 1 194 1.6 4.8 0.00 0.81 0.00 91 957.6
20260507100050 1 267 0.0 3.2 0.00 0.81 0.00 91 957.5
20260507094546 2 267 0.0 0.0 0.00 0.84 0.00 91 957.4
20260507093048 2 262 0.0 0.0 0.00 0.84 0.00 91 957.6
20260507091544 2 262 0.0 0.0 0.00 0.84 0.00 91 957.6
20260507090041 2 262 0.0 1.6 0.00 0.84 0.00 92 957.6
20260507084544 2 261 1.6 3.2 0.00 0.84 0.00 93 957.6
20260507083037 3 261 1.6 4.8 0.00 0.84 0.00 93 957.5
20260507081540 3 261 1.6 4.8 0.00 0.84 0.00 94 957.5
20260507080033 3 265 1.6 4.8 0.00 0.84 0.00 94 957.6
20260507074536 3 264 3.2 6.4 0.00 0.84 0.00 94 957.5
20260507073028 4 252 1.6 4.8 0.00 0.84 0.00 94 957.6
20260507071527 4 252 1.6 4.8 0.00 0.84 0.00 95 957.8
20260507070024 4 264 3.2 6.4 0.00 0.84 0.00 95 957.5